Wind_Speed
7 7 7 7 7 8 7 7 7 8 8 8 8 8 8 8 8 9 10 11 12 13 13 13 13 14 15 15 16 16 17 17 16 16 16 16 16 16 16 17 19 21 21
10 9 10 10 10 9 9 9 9 9 10 10 11 11 10 11 12 13 14 14 13 13 13 13 14 15 15 16 16 17 17 18 20 20 20 20 21 21 21 19 20 20 21
14 13 11 10 9 10 11 11 11 10 9 9 8 8 8 9 9 10 11 12 13 14 14 14 15 15 15 15 16 17 17 18 18 18 20 21 21 21 21 22 22 23 20
14 13 12 11 11 11 11 11 11 10 10 9 9 8 9 9 9 10 11 13 13 14 15 16 16 15 16 16 17 17 18 18 18 19 20 19 20 21 20 20 21 21 21
14 14 13 13 12 12 11 11 11 10 9 9 9 9 9 9 10 11 12 14 14 15 15 15 14 14 15 17 17 17 18 18 18 19 18 17 19 19 19 19 19 18 17
15 15 15 14 13 12 12 12 11 10 8 8 8 8 9 9 10 9 10 10 12 12 12 14 13 13 15 17 19 21 17 16 16 15 17 17 17 18 19 18 18 19 21
17 17 16 15 14 14 13 12 11 10 9 9 8 8 8 9 9 10 9 8 10 11 13 13 13 14 15 17 19 20 16 13 15 14 15 17 18 17 18 18 18 18 19
18 18 18 17 16 16 14 13 12 11 10 10 9 9 4 6 9 9 10 10 12 12 13 13 15 14 15 16 17 15 13 12 13 14 16 17 18 18 18 17 17 17 17
19 19 19 19 18 17 16 15 14 13 12 11 10 7 4 4 6 9 11 13 13 14 13 17 16 14 14 16 16 14 14 12 10 13 14 15 17 19 22 23 22 19 18
20 21 21 21 20 19 19 17 16 15 14 12 12 11 11 12 6 6 8 12 14 15 19 16 17 16 14 16 16 14 14 11 10 10 10 9 9 11 13 19 20 19 15
21 22 23 23 23 22 21 20 20 18 16 15 13 13 13 13 14 15 18 17 17 16 16 17 18 16 15 17 19 18 12 11 10 8 10 8 8 7 9 14 3 14 19
24 24 24 25 25 25 24 23 22 22 19 18 16 15 15 14 15 16 19 20 19 20 18 16 18 18 17 17 19 21 13 11 10 8 9 9 8 8 9 7 3 6 17
29 27 26 26 27 27 27 26 25 24 22 20 18 17 16 16 15 19 20 21 21 21 21 19 18 20 20 18 19 17 14 12 11 9 10 8 9 7 3 3 7 13 8
30 27 27 27 27 28 29 29 28 27 25 22 20 18 16 16 17 18 21 21 21 21 21 19 17 18 19 17 15 14 13 12 11 10 10 13 10 7 5 3 2 8 8
30 28 28 29 30 31 32 32 31 29 27 24 21 18 16 17 17 23 21 22 20 18 20 18 14 17 18 15 14 14 13 15 12 11 11 8 7 6 5 3 4 5 7
29 30 31 33 33 33 34 35 33 31 29 25 21 18 17 17 26 22 22 21 20 19 20 17 13 13 14 15 15 14 11 13 13 14 13 10 8 7 5 3 4 3 4
30 31 33 33 33 34 36 37 36 33 31 26 22 19 20 30 23 23 20 20 20 19 19 20 19 17 15 16 15 13 11 14 16 15 15 13 13 13 7 5 3 2 2
28 30 32 32 33 35 36 38 38 36 34 30 26 23 26 24 20 21 21 20 20 19 20 19 17 15 12 12 16 16 14 16 22 20 16 13 14 9 6 5 4 2 3
22 26 29 32 32 35 37 39 39 36 33 30 26 25 24 21 26 22 20 19 20 20 22 22 20 17 17 18 19 22 22 21 20 21 22 17 17 15 12 7 3 4 3
21 24 27 30 32 35 38 39 39 35 34 34 27 26 21 23 22 20 20 18 19 19 25 26 24 22 24 21 23 24 26 27 23 21 11 11 17 15 9 4 2 2 2
21 24 27 31 35 36 38 40 39 38 34 26 26 29 25 22 22 21 20 21 21 22 25 27 28 26 26 22 24 22 25 26 25 15 12 27 24 16 10 5 3 2 2
25 24 27 30 31 33 35 35 32 29 31 30 32 25 22 20 21 21 21 22 20 21 24 24 24 24 23 21 19 22 26 25 13 21 21 17 17 13 12 4 3 3 3
31 31 29 32 35 35 36 34 34 35 36 32 26 23 17 20 22 21 20 17 15 15 17 17 19 20 19 19 22 21 28 26 20 23 27 27 22 13 9 8 5 5 3
29 28 31 30 34 34 31 35 31 33 31 22 24 20 17 16 16 16 16 16 17 18 22 20 21 20 21 20 16 22 22 22 22 23 24 20 17 12 11 8 7 6 2
32 30 31 32 32 37 35 29 25 23 21 22 24 15 15 14 13 16 15 12 12 12 14 17 19 20 21 21 21 20 20 21 24 24 26 21 19 16 13 9 6 9 4
34 32 30 32 33 35 25 28 26 23 26 22 14 15 13 12 13 11 10 11 11 13 15 16 14 14 16 16 17 17 21 22 25 22 24 20 22 21 13 13 11 11 6
Wind_Direction
205 207 216 222 232 239 252 253 258 264 270 273 275 282 281 282 277 278 282 285 287 290 293 294 294 294 293 291 289 289 287 284 281 279 279 281 283 282 281 278 273 273 273
209 233 220 234 239 255 268 261 262 261 262 259 262 268 268 272 276 280 285 290 292 295 296 296 293 291 291 291 291 288 284 282 280 277 275 273 274 276 278 279 280 280 277
228 245 253 256 257 258 264 266 268 268 268 268 259 262 267 271 273 279 283 285 293 301 306 305 303 298 296 293 288 284 284 282 282 283 279 276 273 272 272 273 276 278 270
239 247 254 255 258 259 262 264 264 267 268 268 273 278 280 281 283 290 289 291 296 302 305 307 307 303 300 296 294 294 286 280 282 279 278 280 276 273 272 271 271 266 268
244 247 252 256 258 259 261 260 260 260 263 268 271 275 276 279 283 284 287 288 294 300 306 308 306 302 300 301 304 304 299 291 284 286 286 285 276 274 274 267 265 261 259
247 245 248 253 255 259 260 257 255 255 256 263 268 274 278 275 274 273 280 289 297 309 311 310 311 308 302 300 303 306 308 298 295 292 293 281 280 274 270 267 267 258 254
245 246 248 250 252 254 255 252 249 251 259 268 272 276 275 272 266 263 269 286 300 305 309 310 315 307 299 297 299 297 310 305 310 303 286 291 279 277 270 266 261 256 256
249 248 250 252 254 257 257 254 253 257 258 262 274 289 268 263 259 259 267 275 286 294 299 303 309 304 299 299 300 310 315 316 319 313 298 282 280 275 275 273 265 262 262
253 252 252 253 254 256 255 253 252 252 255 260 265 266 282 251 280 265 265 270 274 284 282 298 298 306 304 303 307 305 305 306 310 325 318 298 285 277 270 265 262 261 263
260 257 256 255 255 255 254 253 250 250 252 256 264 267 265 266 284 286 283 278 278 279 288 284 290 294 299 304 305 296 297 297 296 312 331 354 331 311 293 270 260 257 242
262 259 257 256 256 255 254 252 250 248 249 252 260 267 266 264 263 261 278 282 277 276 280 284 287 286 293 307 307 308 285 290 293 289 308 307 315 327 10 38 156 139 141
266 264 261 258 256 253 252 253 251 248 248 253 257 256 257 260 268 264 263 275 279 283 284 278 283 281 286 298 307 303 291 283 287 293 299 296 317 330 350 320 342 64 14
268 268 269 265 261 258 254 251 251 249 250 256 261 262 261 262 262 265 268 273 275 283 282 282 273 277 286 298 307 292 287 280 280 285 285 284 291 310 345 315 319 343 57
271 272 273 272 265 258 253 251 250 248 248 252 255 257 260 267 267 272 272 273 276 279 281 279 273 270 275 288 303 294 277 276 273 272 276 285 292 302 312 324 33 95 101
272 270 271 272 268 261 254 251 250 248 247 249 251 251 257 262 276 280 270 268 270 273 284 286 263 263 270 280 293 299 274 270 260 259 268 276 294 303 316 320 96 112 96
278 271 267 271 269 261 255 252 250 246 245 246 244 242 255 279 284 271 266 263 263 265 266 272 267 262 264 267 282 293 274 260 251 259 259 270 276 278 290 267 166 137 113
272 269 267 267 271 267 258 252 249 244 244 242 235 245 274 283 269 267 264 259 257 265 271 271 269 268 261 265 281 293 262 259 255 245 257 258 262 266 271 262 249 169 117
268 269 268 267 267 268 264 255 250 244 240 235 234 254 276 261 265 273 260 256 254 262 269 270 268 263 253 270 283 277 267 263 252 247 262 254 259 249 241 211 271 269 292
274 272 270 267 269 272 265 257 250 244 243 238 247 255 251 264 273 257 260 257 254 258 264 266 258 258 265 270 274 277 277 273 268 247 254 279 216 229 201 221 264 291 305
280 274 274 270 269 272 267 260 251 239 241 242 243 247 256 268 250 254 253 249 252 258 253 254 255 262 276 277 276 273 267 263 237 240 253 213 199 202 205 208 229 236 297
286 278 274 272 272 268 262 259 249 242 238 238 249 249 262 240 251 254 252 248 252 256 259 263 271 270 278 273 270 268 263 226 240 246 199 171 182 180 189 209 234 234 310
290 285 282 280 277 272 271 264 250 240 234 244 248 237 237 249 254 255 253 252 258 262 261 264 268 270 262 265 274 256 235 232 223 183 185 189 208 193 188 212 252 254 303
304 297 289 283 274 270 265 252 247 236 236 244 231 242 242 253 259 256 247 247 253 263 253 258 259 261 269 265 264 249 229 239 231 203 209 189 186 195 189 191 226 265 283
306 301 292 297 290 271 260 252 238 243 241 223 232 229 247 259 267 258 242 249 257 254 250 255 255 266 261 258 256 253 260 241 216 201 193 187 188 195 186 203 241 271 236
307 296 297 293 289 272 269 245 241 219 233 219 224 227 239 257 268 251 243 242 254 253 257 258 262 255 255 253 252 252 237 233 205 199 200 203 191 186 189 208 230 272 259
306 299 285 286 286 268 246 247 223 234 212 228 213 219 231 255 257 230 231 235 243 252 259 266 265 264 259 255 235 231 235 224 210 201 206 203 194 191 182 203 225 245 264
Height
1558 1559 1560 1560 1560 1559 1559 1558 1558 1558 1558 1558 1557 1557 1557 1557 1557 1556 1556 1555 1554 1553 1552 1552 1551 1550 1549 1547 1546 1545 1544 1544 1543 1542 1541 1541 1540 1540 1539 1538 1536 1536 1536
1558 1558 1558 1558 1559 1559 1558 1558 1557 1557 1557 1557 1556 1555 1555 1554 1554 1554 1553 1553 1552 1551 1551 1549 1548 1547 1546 1545 1544 1542 1541 1540 1539 1538 1537 1537 1536 1536 1536 1535 1533 1533 1532
1556 1556 1556 1557 1558 1558 1557 1557 1556 1556 1556 1555 1555 1554 1554 1553 1553 1552 1551 1550 1550 1549 1549 1547 1546 1544 1543 1542 1541 1539 1538 1536 1535 1534 1533 1532 1532 1531 1531 1530 1530 1529 1528
1554 1555 1555 1556 1556 1556 1556 1555 1555 1554 1554 1554 1553 1553 1552 1551 1551 1550 1549 1548 1548 1547 1547 1545 1544 1543 1541 1539 1537 1536 1534 1532 1531 1530 1529 1528 1527 1527 1526 1525 1525 1525 1525
1552 1553 1553 1554 1554 1554 1554 1553 1552 1552 1551 1551 1551 1551 1550 1550 1549 1548 1548 1546 1546 1545 1544 1543 1542 1541 1539 1537 1535 1533 1530 1529 1527 1526 1525 1524 1522 1522 1521 1520 1520 1520 1520
1549 1550 1551 1551 1551 1551 1551 1550 1550 1550 1549 1549 1548 1548 1547 1547 1546 1546 1546 1545 1544 1543 1542 1540 1539 1538 1536 1535 1533 1530 1529 1526 1525 1523 1522 1520 1519 1518 1517 1517 1517 1517 1516
1546 1547 1547 1547 1547 1547 1547 1547 1547 1547 1547 1547 1546 1546 1545 1544 1544 1543 1542 1543 1543 1542 1541 1539 1537 1535 1534 1532 1530 1528 1527 1524 1523 1521 1519 1518 1516 1515 1514 1513 1512 1512 1513
1543 1544 1544 1545 1545 1545 1545 1545 1545 1545 1545 1545 1544 1543 1542 1542 1540 1540 1539 1539 1538 1538 1537 1536 1534 1532 1531 1530 1529 1527 1525 1523 1521 1519 1517 1515 1513 1512 1512 1511 1510 1509 1510
1540 1541 1542 1542 1542 1542 1542 1542 1542 1541 1542 1541 1542 1542 1540 1539 1538 1537 1536 1535 1535 1535 1534 1533 1532 1531 1528 1527 1525 1524 1523 1522 1520 1518 1515 1512 1510 1508 1507 1507 1506 1506 1508
1537 1537 1538 1538 1539 1539 1538 1538 1538 1538 1538 1538 1538 1538 1538 1538 1537 1536 1534 1534 1532 1531 1531 1530 1529 1528 1526 1525 1524 1523 1522 1520 1519 1518 1515 1512 1509 1507 1504 1500 1500 1502 1504
1533 1533 1533 1534 1534 1535 1535 1535 1534 1534 1534 1534 1533 1533 1533 1533 1533 1533 1530 1529 1528 1527 1527 1527 1526 1524 1524 1522 1521 1520 1518 1518 1517 1516 1514 1513 1510 1507 1505 1498 1494 1496 1496
1529 1529 1528 1528 1529 1529 1530 1530 1530 1530 1529 1529 1528 1527 1527 1527 1528 1527 1525 1524 1524 1524 1524 1523 1522 1521 1520 1519 1518 1517 1516 1515 1515 1514 1514 1512 1509 1508 1504 1503 1500 1501 1498
1523 1524 1525 1524 1524 1524 1525 1525 1525 1525 1525 1525 1525 1525 1524 1523 1521 1522 1522 1520 1519 1518 1518 1519 1519 1518 1517 1516 1515 1514 1513 1513 1513 1513 1512 1511 1510 1508 1506 1504 1503 1502 1503
1518 1520 1521 1521 1520 1519 1519 1519 1519 1520 1519 1519 1519 1520 1519 1520 1519 1517 1517 1517 1515 1514 1513 1513 1514 1513 1513 1512 1511 1511 1510 1510 1511 1512 1512 1510 1508 1507 1505 1504 1504 1505 1505
1511 1512 1514 1514 1514 1514 1513 1513 1513 1514 1514 1514 1515 1515 1515 1515 1514 1514 1512 1512 1512 1510 1509 1509 1509 1509 1510 1510 1508 1507 1507 1508 1509 1510 1510 1509 1507 1506 1505 1505 1504 1505 1505
1505 1505 1507 1507 1507 1507 1507 1507 1507 1508 1508 1508 1508 1508 1509 1509 1510 1509 1508 1507 1506 1506 1506 1505 1505 1506 1505 1504 1505 1504 1504 1505 1507 1508 1507 1507 1506 1504 1503 1504 1504 1504 1504
1498 1498 1498 1499 1499 1499 1499 1499 1499 1500 1501 1502 1502 1502 1502 1503 1503 1503 1502 1502 1501 1501 1501 1501 1500 1500 1501 1502 1500 1501 1501 1502 1504 1505 1505 1505 1502 1502 1502 1502 1503 1502 1502
1491 1491 1491 1491 1491 1491 1491 1491 1492 1492 1493 1493 1493 1493 1494 1496 1497 1497 1496 1495 1496 1496 1496 1496 1496 1495 1496 1497 1497 1497 1498 1498 1500 1501 1502 1501 1498 1499 1500 1500 1501 1502 1502
1484 1484 1484 1483 1484 1483 1483 1483 1484 1485 1488 1489 1490 1488 1488 1489 1490 1491 1491 1492 1492 1493 1493 1492 1491 1492 1493 1493 1494 1493 1495 1495 1495 1496 1497 1497 1494 1497 1498 1499 1500 1501 1501
1478 1477 1476 1475 1475 1475 1474 1474 1475 1476 1479 1482 1482 1483 1482 1482 1485 1485 1485 1485 1486 1486 1486 1486 1486 1486 1488 1488 1489 1488 1489 1490 1490 1491 1492 1491 1491 1495 1496 1497 1499 1500 1500
1472 1471 1469 1468 1467 1466 1465 1466 1465 1467 1471 1473 1476 1475 1475 1476 1478 1478 1479 1480 1481 1481 1481 1480 1481 1483 1481 1481 1483 1484 1485 1484 1486 1488 1490 1488 1490 1493 1495 1496 1498 1499 1499
1466 1464 1463 1462 1460 1459 1459 1459 1459 1461 1462 1465 1468 1469 1469 1472 1473 1472 1473 1474 1474 1474 1475 1475 1475 1477 1477 1476 1478 1478 1481 1481 1483 1485 1486 1488 1490 1491 1493 1495 1497 1497 1498
1461 1459 1456 1454 1453 1452 1451 1452 1453 1452 1454 1457 1461 1463 1465 1468 1468 1468 1468 1468 1468 1469 1470 1470 1470 1470 1472 1473 1473 1473 1476 1477 1479 1481 1483 1485 1488 1490 1492 1493 1495 1496 1496
1455 1452 1450 1447 1445 1444 1445 1446 1446 1447 1448 1449 1454 1457 1461 1462 1462 1461 1463 1462 1463 1463 1464 1465 1466 1467 1468 1468 1470 1470 1472 1473 1475 1478 1481 1484 1487 1489 1491 1492 1493 1494 1495
1448 1445 1441 1439 1438 1438 1439 1439 1440 1442 1443 1445 1447 1452 1455 1456 1457 1458 1455 1456 1459 1458 1460 1461 1461 1462 1462 1463 1465 1465 1466 1469 1472 1475 1478 1481 1484 1487 1490 1491 1492 1492 1493
1440 1436 1433 1430 1429 1429 1430 1433 1432 1434 1437 1441 1443 1447 1450 1451 1452 1453 1452 1453 1454 1455 1455 1456 1456 1456 1457 1457 1459 1460 1462 1465 1468 1472 1476 1480 1482 1485 1489 1490 1491 1491 1492